EWG70A LOWS-LEPA

Flight info

Callsign EWG70A
Flight time 1h 56m
Altitude 37000
Route DETSA DCT MOBDO DCT ADOSA DCT PIDAD DCT TALEP DCT RARQU DCT BALEN UT250 RIXOT
Aircraft A320/M-SDE3FGHIRWY/LB1

Departure

Time 2026-05-04 16:00
Airport Salzburg Airport (LOWS)

Arrival

Time 2026-05-04 17:57
Airport Palma de Mallorca Airport (LEPA)
Time Latitude Longitude Altitude Speed Heading
2026-05-04 15:30 47.79253 12.99863 1422 ft 0 kts 282°
2026-05-04 15:53 47.79254 12.99859 1422 ft 1 kts 286°
2026-05-04 15:54 47.79266 12.99850 1422 ft 3 kts 341°
2026-05-04 15:54 47.79293 12.99870 1422 ft 6 kts 45°
2026-05-04 15:54 47.79323 12.99952 1422 ft 12 kts 64°
2026-05-04 15:54 47.79355 13.00060 1422 ft 8 kts 69°
2026-05-04 15:55 47.79341 13.00119 1422 ft 6 kts 136°
2026-05-04 15:55 47.79289 13.00156 1422 ft 11 kts 156°
2026-05-04 15:55 47.79199 13.00213 1421 ft 17 kts 157°
2026-05-04 15:55 47.79072 13.00293 1420 ft 21 kts 158°
2026-05-04 15:56 47.78943 13.00375 1421 ft 20 kts 156°
2026-05-04 15:56 47.78823 13.00450 1420 ft 17 kts 157°
2026-05-04 15:56 47.78719 13.00516 1420 ft 15 kts 156°
2026-05-04 15:56 47.78632 13.00571 1421 ft 12 kts 157°
2026-05-04 15:57 47.78561 13.00615 1422 ft 10 kts 157°
2026-05-04 15:57 47.78500 13.00653 1421 ft 10 kts 157°
2026-05-04 15:57 47.78432 13.00696 1421 ft 11 kts 157°
2026-05-04 15:57 47.78362 13.00740 1421 ft 10 kts 157°
2026-05-04 15:58 47.78299 13.00779 1421 ft 9 kts 157°
2026-05-04 15:58 47.78243 13.00817 1421 ft 9 kts 148°
2026-05-04 15:58 47.78194 13.00890 1421 ft 13 kts 122°
2026-05-04 15:58 47.78189 13.01001 1419 ft 12 kts 72°
2026-05-04 15:59 47.78220 13.01078 1420 ft 5 kts 36°
2026-05-04 15:59 47.78254 13.01078 1417 ft 5 kts 345°
2026-05-04 15:59 47.78276 13.01064 1420 ft 3 kts 337°
2026-05-04 15:59 47.78372 13.01004 1419 ft 45 kts 337°
2026-05-04 16:00 47.78873 13.00688 1419 ft 110 kts 337°
2026-05-04 16:00 47.79737 13.00144 1427 ft 160 kts 338°
2026-05-04 16:00 47.80785 12.99499 1982 ft 162 kts 338°
2026-05-04 16:00 47.81833 12.98817 2591 ft 168 kts 331°
2026-05-04 16:01 47.82699 12.97641 3174 ft 173 kts 304°
2026-05-04 16:01 47.83281 12.96043 3773 ft 175 kts 298°
2026-05-04 16:01 47.83856 12.94446 4436 ft 174 kts 300°
2026-05-04 16:01 47.84446 12.92909 5014 ft 173 kts 300°
2026-05-04 16:02 47.85056 12.91362 5568 ft 173 kts 300°
2026-05-04 16:02 47.85662 12.89813 6111 ft 173 kts 300°
2026-05-04 16:02 47.86897 12.86630 6862 ft 191 kts 297°
2026-05-04 16:03 47.87600 12.84805 7032 ft 214 kts 298°
2026-05-04 16:03 47.88383 12.82768 7215 ft 239 kts 298°
2026-05-04 16:03 47.89252 12.80515 7500 ft 262 kts 298°
2026-05-04 16:03 47.89971 12.77952 7913 ft 278 kts 280°
2026-05-04 16:04 47.90090 12.75070 8623 ft 280 kts 261°
2026-05-04 16:04 47.88678 12.69785 10236 ft 277 kts 226°
2026-05-04 16:04 47.87140 12.67934 10574 ft 295 kts 209°
2026-05-04 16:05 47.85256 12.66637 11218 ft 300 kts 200°
2026-05-04 16:05 47.83259 12.65767 11957 ft 304 kts 193°
2026-05-04 16:05 47.79117 12.64236 13447 ft 310 kts 195°
2026-05-04 16:06 47.77012 12.63423 14115 ft 313 kts 195°
2026-05-04 16:06 47.71309 12.61242 15782 ft 321 kts 195°
2026-05-04 16:07 47.68412 12.60166 16600 ft 327 kts 195°
2026-05-04 16:07 47.61405 12.57580 17814 ft 355 kts 194°
2026-05-04 16:08 47.58985 12.56694 18365 ft 360 kts 195°
2026-05-04 16:08 47.51619 12.53977 19915 ft 370 kts 195°
2026-05-04 16:09 47.46552 12.52113 20932 ft 377 kts 195°
2026-05-04 16:09 47.41439 12.50239 21942 ft 384 kts 195°
2026-05-04 16:10 47.36206 12.48323 22940 ft 390 kts 195°
2026-05-04 16:11 47.28196 12.45408 24269 ft 398 kts 195°
2026-05-04 16:11 47.25529 12.44436 24611 ft 401 kts 195°
2026-05-04 16:12 47.17328 12.41460 25811 ft 407 kts 195°
2026-05-04 16:12 47.09050 12.38468 26941 ft 410 kts 195°
2026-05-04 16:13 47.03504 12.36454 27732 ft 412 kts 195°
2026-05-04 16:13 46.97896 12.34420 28411 ft 417 kts 195°
2026-05-04 16:14 46.92263 12.32399 29095 ft 420 kts 195°
2026-05-04 16:14 46.86549 12.30367 29655 ft 424 kts 195°
2026-05-04 16:15 46.78377 12.25636 30462 ft 427 kts 216°
2026-05-04 16:16 46.73802 12.20058 30941 ft 429 kts 221°
2026-05-04 16:16 46.67016 12.11576 31796 ft 425 kts 220°
2026-05-04 16:17 46.62545 12.06025 32396 ft 424 kts 220°
2026-05-04 16:18 46.55817 11.97685 33267 ft 422 kts 220°
2026-05-04 16:18 46.53580 11.94914 33564 ft 421 kts 220°
2026-05-04 16:19 46.46921 11.86687 34359 ft 419 kts 220°
2026-05-04 16:19 46.42458 11.81222 34802 ft 419 kts 218°
2026-05-04 16:20 46.35341 11.73907 35453 ft 419 kts 216°
2026-05-04 16:20 46.30595 11.69072 35893 ft 418 kts 217°
2026-05-04 16:21 46.23452 11.61796 36446 ft 418 kts 217°
2026-05-04 16:22 46.18725 11.56992 36810 ft 417 kts 217°
2026-05-04 16:22 46.11594 11.49783 37103 ft 416 kts 217°
2026-05-04 16:23 46.04510 11.42631 37114 ft 415 kts 217°
2026-05-04 16:25 45.90302 11.28379 37115 ft 415 kts 217°
2026-05-04 16:26 45.73699 11.11814 37088 ft 416 kts 217°
2026-05-04 16:28 45.62005 10.99717 37050 ft 414 kts 223°
2026-05-04 16:29 45.46591 10.81238 37053 ft 414 kts 222°
2026-05-04 16:31 45.35525 10.68105 37057 ft 414 kts 223°
2026-05-04 16:32 45.22256 10.52376 37064 ft 414 kts 223°
2026-05-04 16:33 45.13382 10.41948 37082 ft 414 kts 223°
2026-05-04 16:34 45.06752 10.34185 37095 ft 413 kts 223°
2026-05-04 16:35 44.93498 10.18716 37074 ft 411 kts 223°
2026-05-04 16:36 44.86889 10.11049 37074 ft 411 kts 223°
2026-05-04 16:37 44.80286 10.03403 37083 ft 410 kts 223°
2026-05-04 16:38 44.71487 9.93246 37089 ft 409 kts 223°
2026-05-04 16:39 44.60495 9.80631 37106 ft 407 kts 223°
2026-05-04 16:40 44.51771 9.70642 37109 ft 404 kts 223°
2026-05-04 16:41 44.40889 9.58268 37108 ft 402 kts 223°
2026-05-04 16:43 44.30778 9.46797 37101 ft 402 kts 223°
2026-05-04 16:43 44.24251 9.39437 37113 ft 401 kts 223°
2026-05-04 16:45 44.11279 9.24861 37100 ft 399 kts 223°
2026-05-04 16:46 44.00475 9.12788 37076 ft 398 kts 223°
2026-05-04 16:47 43.91853 9.03180 37097 ft 397 kts 223°
2026-05-04 16:48 43.83260 8.93668 37077 ft 395 kts 223°
2026-05-04 16:49 43.74700 8.84220 37074 ft 393 kts 223°
2026-05-04 16:50 43.66145 8.74810 37061 ft 393 kts 223°
2026-05-04 16:51 43.59779 8.67690 37072 ft 390 kts 225°
2026-05-04 16:52 43.51667 8.57872 37052 ft 387 kts 225°
2026-05-04 16:53 43.45573 8.50603 37033 ft 387 kts 225°
2026-05-04 16:54 43.37403 8.40974 37043 ft 387 kts 225°
2026-05-04 16:55 43.25172 8.26571 37050 ft 386 kts 225°
2026-05-04 16:56 43.14982 8.14627 37044 ft 385 kts 224°
2026-05-04 16:57 43.08887 8.07524 37033 ft 384 kts 224°
2026-05-04 16:58 43.00740 7.98037 37030 ft 384 kts 224°
2026-05-04 17:00 42.88546 7.83897 37039 ft 383 kts 224°
2026-05-04 17:01 42.78378 7.72193 37042 ft 383 kts 224°
2026-05-04 17:02 42.70227 7.62860 37021 ft 383 kts 224°
2026-05-04 17:03 42.64137 7.55881 37043 ft 383 kts 224°
2026-05-04 17:03 42.58006 7.48890 37033 ft 383 kts 223°
2026-05-04 17:04 42.49865 7.39616 37029 ft 383 kts 223°
2026-05-04 17:05 42.41681 7.30347 37026 ft 383 kts 223°
2026-05-04 17:06 42.35573 7.23441 36998 ft 383 kts 223°
2026-05-04 17:07 42.30122 7.17300 37001 ft 383 kts 223°
2026-05-04 17:07 42.25362 7.11942 37002 ft 383 kts 223°
2026-05-04 17:08 42.19210 7.05029 37004 ft 383 kts 223°
2026-05-04 17:09 42.15111 7.00433 36990 ft 383 kts 223°
2026-05-04 17:09 42.11034 6.95884 36992 ft 383 kts 223°
2026-05-04 17:10 42.00792 6.84478 36994 ft 382 kts 223°
2026-05-04 17:11 41.96685 6.79918 36985 ft 382 kts 223°
2026-05-04 17:12 41.90534 6.73096 36984 ft 382 kts 223°
2026-05-04 17:13 41.80306 6.61781 36982 ft 381 kts 223°
2026-05-04 17:14 41.72113 6.52765 36962 ft 382 kts 223°
2026-05-04 17:15 41.65942 6.46000 36986 ft 382 kts 222°
2026-05-04 17:16 41.57754 6.37053 36976 ft 380 kts 223°
2026-05-04 17:17 41.49590 6.28117 36974 ft 380 kts 223°
2026-05-04 17:18 41.41393 6.19207 36966 ft 380 kts 222°
2026-05-04 17:19 41.33205 6.10336 36947 ft 381 kts 222°
2026-05-04 17:20 41.24976 6.01465 36973 ft 380 kts 222°
2026-05-04 17:20 41.18818 5.94851 36943 ft 380 kts 222°
2026-05-04 17:21 41.10596 5.86017 36946 ft 382 kts 222°
2026-05-04 17:22 41.06451 5.81575 36951 ft 382 kts 222°
2026-05-04 17:23 40.98176 5.72735 36925 ft 383 kts 222°
2026-05-04 17:24 40.92669 5.65281 36967 ft 378 kts 236°
2026-05-04 17:25 40.86583 5.53879 36965 ft 379 kts 236°
2026-05-04 17:26 40.80482 5.42566 36952 ft 379 kts 236°
2026-05-04 17:27 40.72821 5.28355 35716 ft 389 kts 235°
2026-05-04 17:27 40.69641 5.22481 33907 ft 394 kts 234°
2026-05-04 17:28 40.66464 5.16635 32372 ft 389 kts 234°
2026-05-04 17:29 40.61828 5.08094 30265 ft 382 kts 233°
2026-05-04 17:29 40.57057 4.99352 27149 ft 390 kts 234°
2026-05-04 17:30 40.52545 4.91107 26413 ft 351 kts 234°
2026-05-04 17:31 40.49784 4.86066 25914 ft 332 kts 234°
2026-05-04 17:31 40.45783 4.78782 25182 ft 320 kts 235°
2026-05-04 17:32 40.43215 4.74122 24396 ft 313 kts 235°
2026-05-04 17:33 40.39410 4.67211 23015 ft 308 kts 236°
2026-05-04 17:33 40.38159 4.64934 22680 ft 310 kts 236°
2026-05-04 17:34 40.34331 4.57998 21869 ft 315 kts 235°
2026-05-04 17:34 40.33039 4.55669 21587 ft 315 kts 235°
2026-05-04 17:35 40.29191 4.48725 20734 ft 315 kts 235°
2026-05-04 17:35 40.26610 4.44082 20170 ft 315 kts 235°
2026-05-04 17:35 40.25752 4.42542 19982 ft 315 kts 235°
2026-05-04 17:36 40.24039 4.39468 19605 ft 315 kts 235°
2026-05-04 17:36 40.23166 4.37898 19418 ft 315 kts 235°
2026-05-04 17:36 40.21889 4.35596 19133 ft 315 kts 235°
2026-05-04 17:36 40.20597 4.33274 18855 ft 316 kts 234°
2026-05-04 17:37 40.19298 4.30949 18568 ft 316 kts 234°
2026-05-04 17:37 40.17998 4.28627 18279 ft 316 kts 234°
2026-05-04 17:37 40.16699 4.26306 17964 ft 316 kts 235°
2026-05-04 17:37 40.15406 4.23993 17689 ft 314 kts 234°
2026-05-04 17:38 40.14119 4.21692 17407 ft 313 kts 234°
2026-05-04 17:38 40.12837 4.19400 17132 ft 311 kts 234°
2026-05-04 17:38 40.11560 4.17118 16839 ft 310 kts 234°
2026-05-04 17:38 40.10305 4.14882 16571 ft 309 kts 234°
2026-05-04 17:39 40.07773 4.10372 16030 ft 306 kts 234°
2026-05-04 17:39 40.06515 4.08132 15755 ft 305 kts 234°
2026-05-04 17:39 40.05259 4.05903 15482 ft 304 kts 234°
2026-05-04 17:40 40.04003 4.03676 15213 ft 303 kts 234°
2026-05-04 17:40 40.02770 4.01490 14942 ft 302 kts 234°
2026-05-04 17:40 40.01524 3.99282 14671 ft 301 kts 234°
2026-05-04 17:40 40.00287 3.97086 14398 ft 299 kts 234°
2026-05-04 17:41 39.99052 3.94897 14126 ft 298 kts 234°
2026-05-04 17:41 39.97844 3.92710 13865 ft 297 kts 238°
2026-05-04 17:41 39.96965 3.90313 13619 ft 296 kts 245°
2026-05-04 17:41 39.96140 3.87855 13339 ft 295 kts 245°
2026-05-04 17:42 39.95319 3.85413 13075 ft 293 kts 245°
2026-05-04 17:42 39.94501 3.82985 12817 ft 291 kts 245°
2026-05-04 17:42 39.93686 3.80569 12562 ft 290 kts 245°
2026-05-04 17:42 39.92887 3.78200 12305 ft 289 kts 245°
2026-05-04 17:43 39.92080 3.75807 12065 ft 288 kts 245°
2026-05-04 17:43 39.91277 3.73417 11806 ft 286 kts 245°
2026-05-04 17:43 39.90480 3.71045 11556 ft 285 kts 245°
2026-05-04 17:43 39.89684 3.68686 11310 ft 284 kts 245°
2026-05-04 17:44 39.88891 3.66339 11066 ft 282 kts 245°
2026-05-04 17:44 39.88105 3.64009 10821 ft 280 kts 245°
2026-05-04 17:44 39.87332 3.61717 10581 ft 279 kts 245°
2026-05-04 17:44 39.86551 3.59407 10341 ft 278 kts 245°
2026-05-04 17:45 39.85773 3.57110 10104 ft 277 kts 245°
2026-05-04 17:45 39.84997 3.54824 9870 ft 272 kts 245°
2026-05-04 17:45 39.84242 3.52601 9612 ft 266 kts 245°
2026-05-04 17:45 39.83501 3.50414 9354 ft 261 kts 245°
2026-05-04 17:46 39.82769 3.48259 9090 ft 260 kts 245°
2026-05-04 17:46 39.82049 3.46141 8832 ft 259 kts 245°
2026-05-04 17:46 39.81321 3.43999 8582 ft 258 kts 245°
2026-05-04 17:46 39.80595 3.41867 8329 ft 257 kts 245°
2026-05-04 17:47 39.79870 3.39742 8083 ft 256 kts 245°
2026-05-04 17:47 39.79156 3.37648 7838 ft 256 kts 245°
2026-05-04 17:47 39.78436 3.35535 7587 ft 255 kts 245°
2026-05-04 17:47 39.77718 3.33431 7339 ft 252 kts 245°
2026-05-04 17:48 39.77003 3.31341 7090 ft 253 kts 245°
2026-05-04 17:48 39.76289 3.29253 6854 ft 253 kts 245°
2026-05-04 17:48 39.75575 3.27168 6613 ft 250 kts 244°
2026-05-04 17:48 39.74872 3.25110 6373 ft 248 kts 244°
2026-05-04 17:49 39.74173 3.23064 6120 ft 247 kts 244°
2026-05-04 17:49 39.73476 3.21025 5868 ft 246 kts 245°
2026-05-04 17:49 39.72791 3.19020 5618 ft 246 kts 245°
2026-05-04 17:49 39.72100 3.17000 5366 ft 243 kts 245°
2026-05-04 17:50 39.71412 3.14993 5135 ft 242 kts 245°
2026-05-04 17:50 39.70722 3.12990 4956 ft 242 kts 245°
2026-05-04 17:50 39.70034 3.10990 4785 ft 243 kts 245°
2026-05-04 17:50 39.69349 3.09009 4626 ft 242 kts 245°
2026-05-04 17:51 39.68659 3.07015 4510 ft 241 kts 245°
2026-05-04 17:51 39.67981 3.05055 4393 ft 231 kts 245°
2026-05-04 17:51 39.67332 3.03176 4238 ft 226 kts 244°
2026-05-04 17:51 39.66692 3.01326 4090 ft 227 kts 244°
2026-05-04 17:52 39.66045 2.99452 3933 ft 227 kts 245°
2026-05-04 17:52 39.65457 2.97750 3793 ft 227 kts 244°
2026-05-04 17:52 39.64775 2.95898 3476 ft 225 kts 241°
2026-05-04 17:52 39.64005 2.94149 3180 ft 221 kts 239°
2026-05-04 17:53 39.63216 2.92462 2895 ft 217 kts 238°
2026-05-04 17:53 39.62438 2.90809 2609 ft 212 kts 238°
2026-05-04 17:53 39.61694 2.89227 2337 ft 198 kts 238°
2026-05-04 17:53 39.61008 2.87769 2082 ft 185 kts 238°
2026-05-04 17:54 39.60368 2.86409 1870 ft 169 kts 237°
2026-05-04 17:54 39.59787 2.85173 1636 ft 152 kts 236°
2026-05-04 17:54 39.59263 2.84060 1445 ft 138 kts 236°
2026-05-04 17:54 39.58771 2.83016 1254 ft 133 kts 236°
2026-05-04 17:55 39.58286 2.81988 1088 ft 132 kts 236°
2026-05-04 17:55 39.57804 2.80967 912 ft 136 kts 236°
2026-05-04 17:55 39.57341 2.79985 738 ft 128 kts 237°
2026-05-04 17:55 39.56872 2.78991 565 ft 129 kts 237°
2026-05-04 17:56 39.56401 2.77990 392 ft 131 kts 237°
2026-05-04 17:56 39.55934 2.76998 236 ft 129 kts 238°
2026-05-04 17:56 39.55477 2.76032 63 ft 123 kts 237°
2026-05-04 17:56 39.55074 2.75184 38 ft 88 kts 239°
2026-05-04 17:57 39.54891 2.74790 38 ft 27 kts 238°
2026-05-04 17:57 39.54829 2.74588 38 ft 20 kts 254°
2026-05-04 17:57 39.54808 2.74443 38 ft 12 kts 265°
2026-05-04 17:57 39.54805 2.74356 38 ft 9 kts 269°
2026-05-04 17:58 39.54804 2.74289 38 ft 6 kts 268°
2026-05-04 17:58 39.54803 2.74234 38 ft 7 kts 268°
2026-05-04 17:58 39.54814 2.74162 38 ft 9 kts 294°
2026-05-04 17:58 39.54859 2.74100 38 ft 9 kts 326°
2026-05-04 17:59 39.54934 2.74042 38 ft 16 kts 329°
2026-05-04 17:59 39.55037 2.73960 38 ft 19 kts 328°
2026-05-04 17:59 39.55179 2.73846 38 ft 7 kts 316°
2026-05-04 18:00 39.55179 2.73808 38 ft 5 kts 251°
2026-05-04 18:00 39.55163 2.73768 38 ft 5 kts 262°
2026-05-04 18:00 39.55177 2.73734 38 ft 4 kts 304°
2026-05-04 18:00 39.55180 2.73700 38 ft 6 kts 262°
2026-05-04 18:01 39.55155 2.73641 38 ft 9 kts 237°
2026-05-04 18:01 39.55119 2.73568 38 ft 11 kts 239°
2026-05-04 18:01 39.55078 2.73479 38 ft 9 kts 239°
2026-05-04 18:02 39.55028 2.73383 38 ft 3 kts 210°
2026-05-04 18:02 39.55003 2.73384 38 ft 1 kts 163°
2026-05-04 18:02 39.54998 2.73386 38 ft 2 kts 163°
2026-05-04 18:02 39.54988 2.73390 36 ft 1 kts 163°
2026-05-04 18:03 39.54981 2.73392 37 ft 1 kts 163°
2026-05-04 18:03 39.54981 2.73393 38 ft 0 kts 163°
2026-05-04 18:07 39.54980 2.73393 38 ft 0 kts 163°